SCP
0 0 0 0 0 0 0 0 0 0 0 0 0 0 0 0 0 0 0 0 0 0 0 0 0 0 0 0 0 0 0 0 0 0 0 0 0 0 0 0 0 0 0
0 0 0 0 0 0 0 0 0 0 0 0 0 0 0 0 0 0 0 0 0 0 0 0 0 0 0 0 0 0 0 0 0 0 0 0 0 0 0 0 0 0 0
0 0 0 0 0 0 0 0 0 0 0 0 0 0 0 0 0 0 0 0 0 0 0 0 0 0 0 0 0 0 0 0 0 0 0 0 0 0 0 1 0 0 0
0 0 0 0 0 0 0 0 0 0 0 0 0 0 0 0 0 0 0 0 0 0 0 0 0 0 0 0 0 0 0 0 0 0 0 0 0 0 0 0 0 0 0
0 0 0 0 0 0 0 0 0 0 0 0 0 0 0 0 0 0 0 0 0 0 0 0 0 0 0 0 0 0 0 0 0 0 0 0 0 0 0 0 0 0 0
0 0 0 0 0 0 0 0 0 0 0 0 0 0 0 0 0 0 0 0 0 0 0 0 0 0 0 0 0 0 0 0 0 0 0 0 0 0 0 0 0 0 0
0 0 0 0 0 0 0 0 0 0 0 0 0 0 0 0 0 0 0 0 0 0 0 0 0 0 0 0 0 0 0 0 0 0 0 0 0 0 0 0 0 0 0
0 0 0 0 0 0 0 0 0 0 0 0 0 0 0 0 0 0 0 0 0 0 0 0 0 0 0 0 0 0 0 0 0 0 0 0 0 0 0 0 0 0 0
0 0 0 0 0 0 0 0 0 0 0 0 0 0 0 0 0 0 0 0 0 0 0 0 0 0 0 0 0 0 0 0 0 0 0 0 0 0 0 0 0 0 0
0 0 0 0 0 0 0 0 0 0 0 0 0 0 0 0 0 0 0 0 0 0 0 0 0 0 0 0 0 0 0 0 0 0 0 0 0 0 0 0 0 0 0
0 0 0 0 0 0 0 0 0 0 0 0 0 0 0 0 0 0 0 0 0 0 0 0 0 0 0 0 -0 0 0 0 0 0 0 0 0 0 0 0 0 0 0
0 0 0 0 0 0 0 0 0 0 0 0 0 0 0 0 0 0 0 0 0 0 0 0 0 0 0 0 0 0 0 0 0 0 0 0 0 0 0 0 0 0 0
0 0 0 0 0 0 0 0 0 0 0 0 0 0 0 0 0 0 0 0 0 0 0 0 0 0 0 0 0 0 0 0 0 0 0 0 0 0 0 0 0 0 0
0 0 0 0 0 0 0 0 0 0 0 0 0 0 0 0 0 0 0 0 0 0 0 -0 -0 -0 0 0 0 0 0 0 0 0 0 -0 0 0 0 0 0 0 0
0 0 0 0 0 0 0 0 0 0 0 0 0 0 0 0 0 0 0 -0 -0 0 0 0 0 0 0 0 0 0 0 0 0 -0 -0 0 0 0 0 0 0 0 0
0 0 0 0 0 0 0 0 0 0 0 0 0 0 0 0 0 0 0 -0 -0 -0 0 0 0 0 0 0 0 0 0 0 0 -0 0 -0 -0 -0 0 0 0 0 0
0 0 0 -0 -0 0 0 0 0 0 0 0 0 0 0 0 0 0 0 0 0 0 0 0 0 0 0 0 -0 -0 -0 -0 -0 -0 -0 0 -0 -0 0 0 -0 0 0
0 0 0 0 0 0 0 0 -0 0 0 0 0 0 0 0 0 0 0 0 0 0 0 -0 0 0 0 -0 -0 -0 -0 0 0 -0 -0 0 0 0 0 -0 0 0 0
0 0 0 -0 0 0 0 0 0 0 0 0 0 0 0 0 0 0 0 0 0 0 -0 -0 0 0 -0 -0 -0 -0 0 -0 -0 0 -0 -0 0 0 0 0 0 0 0
0 0 0 -0 -0 0 0 0 0 0 0 0 0 0 0 0 0 0 0 0 -0 -0 -0 -0 -0 -0 -0 -0 -0 -0 -0 -0 -0 -0 -0 0 0 0 0 0 0 0 0
0 0 0 -0 0 0 0 0 0 0 0 0 0 0 0 0 0 0 0 0 0 0 0 0 -0 -0 -0 -0 -0 -0 -0 -0 -0 -0 -0 -0 0 0 0 0 0 0 0
0 0 0 0 0 0 0 0 0 0 0 0 0 0 0 0 0 0 0 0 0 0 0 0 0 0 0 -0 -0 -0 -0 -0 -0 -0 -0 -0 -0 -0 -0 0 0 0 0
0 0 0 0 0 0 0 0 0 0 0 0 0 0 0 0 0 0 0 0 0 0 0 0 0 0 0 0 0 0 -0 -0 -0 -0 -0 -0 -0 -0 -0 -0 -0 0 0
0 0 0 0 0 0 0 0 0 0 0 0 0 0 0 0 0 0 0 0 0 0 0 0 0 0 0 0 0 0 0 0 0 0 0 0 -0 -0 -0 -0 -0 0 0
0 0 0 0 0 0 0 0 0 0 0 0 0 0 0 0 0 0 0 0 0 0 0 0 0 0 0 0 0 0 0 0 0 0 0 0 0 0 0 -0 0 0 0
0 0 0 0 0 0 0 0 0 0 0 0 0 0 0 0 0 0 0 0 0 0 0 0 0 0 0 0 0 0 0 0 0 0 0 0 0 0 0 0 -0 0 0
Wind_Speed_500mb
12 9 9 8 8 8 10 13 17 21 22 24 26 29 30 31 32 36 39 34 34 33 31 30 31 30 30 30 29 30 31 33 39 40 42 41 41 36 36 38 39 36 28
15 13 12 12 13 14 17 22 25 29 26 31 33 34 33 35 35 37 41 35 39 35 34 35 35 30 32 32 28 34 32 35 36 47 41 41 38 34 30 27 24 29 29
18 16 16 15 17 19 24 26 32 33 33 32 33 31 32 35 38 39 33 38 41 35 34 39 43 34 32 28 24 31 32 34 35 36 42 36 29 27 22 21 27 22 24
15 15 16 15 19 23 23 31 44 45 51 45 35 20 28 39 40 42 35 40 41 34 37 36 33 37 33 27 28 25 31 31 34 39 41 36 33 23 24 23 26 20 28
8 12 18 17 19 24 27 29 32 34 38 38 47 59 56 34 41 45 52 54 36 36 35 33 33 37 35 34 23 24 26 28 32 38 33 39 27 22 22 27 25 31 33
3 13 19 14 10 20 24 28 32 35 41 41 42 42 42 34 39 45 49 46 35 31 35 35 32 34 33 32 24 30 24 31 32 28 31 38 31 26 26 27 28 33 39
7 10 3 10 14 20 25 27 27 32 36 37 34 33 31 32 36 41 36 39 32 33 38 36 37 33 39 36 39 40 31 34 38 35 37 30 29 29 33 33 37 39 43
3 3 9 17 21 24 27 28 34 36 36 35 36 31 31 32 35 39 43 34 32 34 33 32 35 35 39 46 49 46 42 40 40 41 39 44 40 39 39 36 45 46 44
6 11 14 18 25 28 31 33 35 35 34 32 31 30 31 30 39 39 45 36 35 37 34 35 38 34 39 43 48 43 42 39 40 48 38 31 47 47 44 41 38 39 38
6 13 19 23 27 28 30 33 36 38 37 32 33 38 29 31 40 44 46 35 37 32 28 27 29 32 31 42 46 43 37 35 38 45 58 48 48 48 41 48 47 44 40
13 18 19 20 24 27 29 36 35 36 31 27 31 31 27 31 31 30 32 35 32 32 29 33 32 38 41 45 45 33 37 44 40 36 35 32 34 26 25 27 22 25 29
12 14 16 18 23 25 32 32 28 30 29 28 28 26 25 31 40 40 40 39 44 28 29 28 28 39 35 33 33 41 38 35 29 30 28 28 29 32 30 26 24 33 32
10 8 15 21 22 23 24 25 27 26 32 34 34 36 34 32 29 29 33 37 32 26 25 33 34 28 28 31 34 35 36 32 39 38 32 27 29 29 33 31 32 28 32
11 10 13 15 15 18 18 20 25 25 36 31 31 34 33 33 31 28 29 28 23 25 29 26 21 26 29 34 35 31 27 28 32 29 33 34 31 29 25 28 27 25 27
8 7 9 8 8 13 15 15 19 24 34 30 29 29 30 28 27 24 31 31 22 24 23 21 22 26 30 30 31 29 28 29 30 27 28 26 28 32 33 31 23 24 25
3 3 3 5 11 11 14 23 17 19 28 36 37 45 32 25 30 28 18 23 19 20 22 24 25 31 31 32 31 31 28 31 30 29 29 26 30 31 32 29 25 23 25
7 4 3 9 11 13 13 16 18 23 27 29 30 39 40 31 34 33 29 31 25 27 24 27 28 31 31 30 30 30 31 30 31 27 28 32 27 31 29 27 24 26 27
5 6 3 10 11 17 8 15 18 19 22 24 23 31 34 26 29 30 32 27 25 26 23 27 29 30 30 29 29 30 29 32 31 31 29 29 30 32 31 29 29 30 30
2 3 9 9 10 14 13 11 16 18 20 21 20 21 32 20 25 14 29 24 22 24 25 27 27 28 29 30 32 28 30 32 33 32 31 31 32 32 31 33 33 32 31
7 13 9 4 10 13 13 15 16 15 17 19 19 16 26 16 20 17 17 20 20 21 23 24 25 26 27 29 30 30 32 31 34 33 33 33 33 32 33 34 33 32 31
6 11 10 7 10 12 14 15 14 14 16 17 15 18 29 15 18 17 17 18 19 20 21 22 23 25 26 27 30 32 31 32 34 34 33 35 35 34 35 34 32 33 32
7 10 10 11 10 11 14 11 14 13 15 15 14 17 25 17 14 14 15 17 18 19 21 22 24 26 27 29 29 30 31 31 33 35 33 36 34 34 34 33 38 37 36
9 10 10 10 11 14 13 14 13 13 14 14 14 13 13 12 11 12 13 16 18 20 21 23 24 26 27 28 27 28 30 33 43 41 35 37 34 33 34 38 39 39 37
10 11 11 11 13 15 12 15 15 16 14 14 14 13 13 12 11 13 13 15 18 19 21 23 23 27 28 27 23 27 31 40 41 41 40 37 35 28 35 37 38 40 40
12 13 14 14 14 14 16 16 17 17 16 16 15 14 14 14 14 14 14 16 18 19 20 21 21 26 27 25 25 47 44 42 41 41 40 37 28 28 35 37 40 39 40
15 15 15 16 16 16 17 18 19 19 18 18 17 17 17 17 16 17 17 18 19 20 21 22 23 27 29 25 43 50 46 43 42 42 40 35 26 34 37 40 41 39 39
Wind_Direction_500mb
204 214 217 226 252 275 297 304 303 303 309 308 309 311 316 323 327 333 334 334 328 322 318 314 312 314 315 318 311 306 301 299 297 300 304 312 317 312 309 294 299 308 310
228 231 243 259 267 279 289 292 296 292 296 303 302 302 303 311 320 322 327 323 329 321 315 310 304 305 309 313 315 316 307 305 301 303 299 303 308 304 319 324 302 299 308
245 254 264 272 272 281 281 289 299 302 303 297 291 300 301 312 316 315 316 321 324 320 316 307 304 297 299 309 315 320 318 310 305 301 300 297 301 303 290 306 299 302 312
244 263 265 263 268 290 291 286 288 287 300 294 287 280 302 303 310 304 308 316 319 319 306 302 306 303 296 295 312 312 313 319 310 304 303 302 296 302 314 331 314 323 319
213 242 241 241 270 296 310 313 316 313 301 294 294 293 293 303 299 301 306 310 317 313 316 310 313 314 307 300 293 301 312 316 315 315 310 317 321 346 335 334 327 313 314
299 295 294 303 348 330 332 329 322 316 314 308 303 298 308 300 295 297 302 310 314 312 317 317 308 315 318 322 332 299 304 308 299 303 301 309 324 332 323 328 325 315 306
118 117 68 340 326 320 316 319 324 325 321 316 313 311 306 302 298 304 312 310 315 310 309 314 316 307 303 304 313 316 313 307 307 299 294 291 301 302 312 317 308 302 298
100 354 320 322 323 330 328 323 322 319 319 322 320 311 310 310 309 313 310 321 315 312 309 303 308 307 302 306 307 316 309 299 290 296 296 295 293 291 294 303 306 306 305
312 320 337 332 323 321 323 323 325 323 322 323 318 327 318 320 314 314 318 332 317 315 312 310 314 299 301 305 322 324 314 302 287 277 281 285 285 287 288 301 299 293 294
354 328 328 331 326 330 330 328 324 317 314 316 321 322 325 321 312 314 326 332 322 324 311 303 309 298 311 321 321 321 314 319 319 297 269 272 282 287 291 282 280 286 299
328 328 327 328 335 338 327 326 319 323 324 329 320 315 325 331 325 329 333 343 324 312 315 314 312 322 321 320 322 320 315 319 319 317 326 302 284 277 280 274 286 279 289
322 339 338 341 336 332 331 330 335 335 342 336 336 340 335 334 322 320 326 332 333 323 309 320 322 322 332 344 346 337 334 330 330 324 325 323 322 324 322 311 313 296 295
323 327 343 338 341 339 353 344 344 350 350 340 337 329 322 313 316 328 339 315 316 324 333 326 326 339 350 336 327 336 347 341 329 325 332 329 325 320 319 316 310 308 307
302 319 335 347 21 4 357 355 352 348 346 344 340 338 331 328 325 327 321 336 337 340 329 325 340 348 345 344 340 343 338 333 333 338 332 327 328 327 327 322 320 315 307
288 327 359 6 337 348 342 345 356 345 6 13 10 0 345 348 340 336 335 341 336 337 337 348 357 354 348 344 345 345 344 342 342 340 335 339 334 337 340 338 331 324 327
271 342 41 343 324 326 336 330 321 344 354 4 3 13 10 357 8 9 18 5 0 352 359 1 355 356 348 348 348 347 348 348 347 342 344 350 349 339 353 340 334 330 335
125 71 331 338 339 329 328 330 337 333 338 350 0 4 10 16 21 17 11 7 28 24 11 3 353 352 351 350 351 351 351 353 349 350 344 346 349 348 337 335 351 350 348
108 40 315 325 322 304 311 331 309 337 341 346 342 351 358 4 19 11 6 8 7 19 4 357 353 352 352 352 354 355 356 355 355 353 350 347 345 343 342 345 340 335 333
38 302 313 298 298 317 306 297 331 320 335 340 343 356 347 353 352 357 10 11 360 1 359 357 358 356 353 354 357 360 359 355 354 353 351 348 346 344 342 340 337 335 337
256 303 328 265 317 323 324 319 319 323 328 338 340 338 342 3 8 10 360 356 359 358 357 357 358 353 354 354 352 355 354 355 353 353 351 349 346 344 342 339 337 332 328
244 285 308 286 309 319 325 325 322 320 326 334 339 323 359 23 357 360 359 357 356 355 354 352 354 351 352 353 349 352 352 351 347 347 347 345 344 342 340 338 337 333 329
257 278 281 283 293 309 320 327 326 322 325 329 334 328 351 10 351 356 357 356 355 352 350 351 347 347 347 350 347 346 350 345 341 341 341 340 340 338 336 337 335 333 330
256 272 281 279 288 295 316 318 319 319 320 323 323 326 333 336 344 344 351 347 349 347 345 346 342 344 344 343 345 342 343 334 339 338 335 330 335 333 333 332 333 332 332
252 257 270 276 284 298 291 305 307 311 314 315 313 314 317 319 321 323 336 335 338 338 338 341 342 341 344 341 342 339 332 333 337 336 332 331 324 328 330 329 328 327 326
251 263 265 270 281 290 291 298 299 301 301 300 301 300 300 303 304 304 313 316 323 326 330 340 339 346 345 346 335 342 340 335 332 332 333 330 331 321 324 324 324 325 325
253 266 270 268 274 282 289 292 296 296 294 292 291 289 288 292 293 293 296 300 304 312 322 330 335 342 347 341 328 338 340 337 335 332 328 328 328 322 321 319 323 323 323
Wind_Speed_850mb
12 9 9 8 8 8 10 13 17 21 22 24 26 29 30 31 32 36 39 34 34 33 31 30 31 30 30 30 29 30 31 33 39 40 42 41 41 36 36 38 39 36 28
15 13 12 12 13 14 17 22 25 29 26 31 33 34 33 35 35 37 41 35 39 35 34 35 35 30 32 32 28 34 32 35 36 47 41 41 38 34 30 27 24 29 29
18 16 16 15 17 19 24 26 32 33 33 32 33 31 32 35 38 39 33 38 41 35 34 39 43 34 32 28 24 31 32 34 35 36 42 36 29 27 22 21 27 22 24
15 15 16 15 19 23 23 31 44 45 51 45 35 20 28 39 40 42 35 40 41 34 37 36 33 37 33 27 28 25 31 31 34 39 41 36 33 23 24 23 26 20 28
8 12 18 17 19 24 27 29 32 34 38 38 47 59 56 34 41 45 52 54 36 36 35 33 33 37 35 34 23 24 26 28 32 38 33 39 27 22 22 27 25 31 33
3 13 19 14 10 20 24 28 32 35 41 41 42 42 42 34 39 45 49 46 35 31 35 35 32 34 33 32 24 30 24 31 32 28 31 38 31 26 26 27 28 33 39
7 10 3 10 14 20 25 27 27 32 36 37 34 33 31 32 36 41 36 39 32 33 38 36 37 33 39 36 39 40 31 34 38 35 37 30 29 29 33 33 37 39 43
3 3 9 17 21 24 27 28 34 36 36 35 36 31 31 32 35 39 43 34 32 34 33 32 35 35 39 46 49 46 42 40 40 41 39 44 40 39 39 36 45 46 44
6 11 14 18 25 28 31 33 35 35 34 32 31 30 31 30 39 39 45 36 35 37 34 35 38 34 39 43 48 43 42 39 40 48 38 31 47 47 44 41 38 39 38
6 13 19 23 27 28 30 33 36 38 37 32 33 38 29 31 40 44 46 35 37 32 28 27 29 32 31 42 46 43 37 35 38 45 58 48 48 48 41 48 47 44 40
13 18 19 20 24 27 29 36 35 36 31 27 31 31 27 31 31 30 32 35 32 32 29 33 32 38 41 45 45 33 37 44 40 36 35 32 34 26 25 27 22 25 29
12 14 16 18 23 25 32 32 28 30 29 28 28 26 25 31 40 40 40 39 44 28 29 28 28 39 35 33 33 41 38 35 29 30 28 28 29 32 30 26 24 33 32
10 8 15 21 22 23 24 25 27 26 32 34 34 36 34 32 29 29 33 37 32 26 25 33 34 28 28 31 34 35 36 32 39 38 32 27 29 29 33 31 32 28 32
11 10 13 15 15 18 18 20 25 25 36 31 31 34 33 33 31 28 29 28 23 25 29 26 21 26 29 34 35 31 27 28 32 29 33 34 31 29 25 28 27 25 27
8 7 9 8 8 13 15 15 19 24 34 30 29 29 30 28 27 24 31 31 22 24 23 21 22 26 30 30 31 29 28 29 30 27 28 26 28 32 33 31 23 24 25
3 3 3 5 11 11 14 23 17 19 28 36 37 45 32 25 30 28 18 23 19 20 22 24 25 31 31 32 31 31 28 31 30 29 29 26 30 31 32 29 25 23 25
7 4 3 9 11 13 13 16 18 23 27 29 30 39 40 31 34 33 29 31 25 27 24 27 28 31 31 30 30 30 31 30 31 27 28 32 27 31 29 27 24 26 27
5 6 3 10 11 17 8 15 18 19 22 24 23 31 34 26 29 30 32 27 25 26 23 27 29 30 30 29 29 30 29 32 31 31 29 29 30 32 31 29 29 30 30
2 3 9 9 10 14 13 11 16 18 20 21 20 21 32 20 25 14 29 24 22 24 25 27 27 28 29 30 32 28 30 32 33 32 31 31 32 32 31 33 33 32 31
7 13 9 4 10 13 13 15 16 15 17 19 19 16 26 16 20 17 17 20 20 21 23 24 25 26 27 29 30 30 32 31 34 33 33 33 33 32 33 34 33 32 31
6 11 10 7 10 12 14 15 14 14 16 17 15 18 29 15 18 17 17 18 19 20 21 22 23 25 26 27 30 32 31 32 34 34 33 35 35 34 35 34 32 33 32
7 10 10 11 10 11 14 11 14 13 15 15 14 17 25 17 14 14 15 17 18 19 21 22 24 26 27 29 29 30 31 31 33 35 33 36 34 34 34 33 38 37 36
9 10 10 10 11 14 13 14 13 13 14 14 14 13 13 12 11 12 13 16 18 20 21 23 24 26 27 28 27 28 30 33 43 41 35 37 34 33 34 38 39 39 37
10 11 11 11 13 15 12 15 15 16 14 14 14 13 13 12 11 13 13 15 18 19 21 23 23 27 28 27 23 27 31 40 41 41 40 37 35 28 35 37 38 40 40
12 13 14 14 14 14 16 16 17 17 16 16 15 14 14 14 14 14 14 16 18 19 20 21 21 26 27 25 25 47 44 42 41 41 40 37 28 28 35 37 40 39 40
15 15 15 16 16 16 17 18 19 19 18 18 17 17 17 17 16 17 17 18 19 20 21 22 23 27 29 25 43 50 46 43 42 42 40 35 26 34 37 40 41 39 39
Wind_Direction_850mb
204 214 217 226 252 275 297 304 303 303 309 308 309 311 316 323 327 333 334 334 328 322 318 314 312 314 315 318 311 306 301 299 297 300 304 312 317 312 309 294 299 308 310
228 231 243 259 267 279 289 292 296 292 296 303 302 302 303 311 320 322 327 323 329 321 315 310 304 305 309 313 315 316 307 305 301 303 299 303 308 304 319 324 302 299 308
245 254 264 272 272 281 281 289 299 302 303 297 291 300 301 312 316 315 316 321 324 320 316 307 304 297 299 309 315 320 318 310 305 301 300 297 301 303 290 306 299 302 312
244 263 265 263 268 290 291 286 288 287 300 294 287 280 302 303 310 304 308 316 319 319 306 302 306 303 296 295 312 312 313 319 310 304 303 302 296 302 314 331 314 323 319
213 242 241 241 270 296 310 313 316 313 301 294 294 293 293 303 299 301 306 310 317 313 316 310 313 314 307 300 293 301 312 316 315 315 310 317 321 346 335 334 327 313 314
299 295 294 303 348 330 332 329 322 316 314 308 303 298 308 300 295 297 302 310 314 312 317 317 308 315 318 322 332 299 304 308 299 303 301 309 324 332 323 328 325 315 306
118 117 68 340 326 320 316 319 324 325 321 316 313 311 306 302 298 304 312 310 315 310 309 314 316 307 303 304 313 316 313 307 307 299 294 291 301 302 312 317 308 302 298
100 354 320 322 323 330 328 323 322 319 319 322 320 311 310 310 309 313 310 321 315 312 309 303 308 307 302 306 307 316 309 299 290 296 296 295 293 291 294 303 306 306 305
312 320 337 332 323 321 323 323 325 323 322 323 318 327 318 320 314 314 318 332 317 315 312 310 314 299 301 305 322 324 314 302 287 277 281 285 285 287 288 301 299 293 294
354 328 328 331 326 330 330 328 324 317 314 316 321 322 325 321 312 314 326 332 322 324 311 303 309 298 311 321 321 321 314 319 319 297 269 272 282 287 291 282 280 286 299
328 328 327 328 335 338 327 326 319 323 324 329 320 315 325 331 325 329 333 343 324 312 315 314 312 322 321 320 322 320 315 319 319 317 326 302 284 277 280 274 286 279 289
322 339 338 341 336 332 331 330 335 335 342 336 336 340 335 334 322 320 326 332 333 323 309 320 322 322 332 344 346 337 334 330 330 324 325 323 322 324 322 311 313 296 295
323 327 343 338 341 339 353 344 344 350 350 340 337 329 322 313 316 328 339 315 316 324 333 326 326 339 350 336 327 336 347 341 329 325 332 329 325 320 319 316 310 308 307
302 319 335 347 21 4 357 355 352 348 346 344 340 338 331 328 325 327 321 336 337 340 329 325 340 348 345 344 340 343 338 333 333 338 332 327 328 327 327 322 320 315 307
288 327 359 6 337 348 342 345 356 345 6 13 10 0 345 348 340 336 335 341 336 337 337 348 357 354 348 344 345 345 344 342 342 340 335 339 334 337 340 338 331 324 327
271 342 41 343 324 326 336 330 321 344 354 4 3 13 10 357 8 9 18 5 0 352 359 1 355 356 348 348 348 347 348 348 347 342 344 350 349 339 353 340 334 330 335
125 71 331 338 339 329 328 330 337 333 338 350 0 4 10 16 21 17 11 7 28 24 11 3 353 352 351 350 351 351 351 353 349 350 344 346 349 348 337 335 351 350 348
108 40 315 325 322 304 311 331 309 337 341 346 342 351 358 4 19 11 6 8 7 19 4 357 353 352 352 352 354 355 356 355 355 353 350 347 345 343 342 345 340 335 333
38 302 313 298 298 317 306 297 331 320 335 340 343 356 347 353 352 357 10 11 360 1 359 357 358 356 353 354 357 360 359 355 354 353 351 348 346 344 342 340 337 335 337
256 303 328 265 317 323 324 319 319 323 328 338 340 338 342 3 8 10 360 356 359 358 357 357 358 353 354 354 352 355 354 355 353 353 351 349 346 344 342 339 337 332 328
244 285 308 286 309 319 325 325 322 320 326 334 339 323 359 23 357 360 359 357 356 355 354 352 354 351 352 353 349 352 352 351 347 347 347 345 344 342 340 338 337 333 329
257 278 281 283 293 309 320 327 326 322 325 329 334 328 351 10 351 356 357 356 355 352 350 351 347 347 347 350 347 346 350 345 341 341 341 340 340 338 336 337 335 333 330
256 272 281 279 288 295 316 318 319 319 320 323 323 326 333 336 344 344 351 347 349 347 345 346 342 344 344 343 345 342 343 334 339 338 335 330 335 333 333 332 333 332 332
252 257 270 276 284 298 291 305 307 311 314 315 313 314 317 319 321 323 336 335 338 338 338 341 342 341 344 341 342 339 332 333 337 336 332 331 324 328 330 329 328 327 326
251 263 265 270 281 290 291 298 299 301 301 300 301 300 300 303 304 304 313 316 323 326 330 340 339 346 345 346 335 342 340 335 332 332 333 330 331 321 324 324 324 325 325
253 266 270 268 274 282 289 292 296 296 294 292 291 289 288 292 293 293 296 300 304 312 322 330 335 342 347 341 328 338 340 337 335 332 328 328 328 322 321 319 323 323 323